Ramanjooloo, R. Wainscoat, R. Weryk. 1.8-m Ritchey-Chretien + CCD.
G96 Mt. Lemmon Survey. Observers A. Boattini, D. Rankin, G. J. Leonard.
Measurers A. Boattini, E. J. Christensen, A. R. Gibbs, A. D. Grauer, R. E.
Hill, J. A. Johnson, R. A. Kowalski, S. M. Larson, R. H. McNaught, G. A.
Farneth, D. C. Fuls, H. Groeller, G. J. Leonard, T. A. Pruyne, D. Rankin,
R. L. Seaman, F. C. Shelly, K. W. Wierzchos. 1.5-m reflector + CCD, 1.5-m
reflector + 10K CCD.
H01 Magdalena Ridge Observatory, Socorro. Observers W. H. Ryan, E. V. Ryan.
Measurer W. H. Ryan. 2.4-m f/8.9 Ritchey-Chretien + CCD.
I41 Palomar Mountain--ZTF. Observers B. T. Bolin, Z. T. F. Collaboration.
Measurers B. T. Bolin, F. J. Masci. 1.2-m f/2.4 Schmidt.
L81 Skygems Namibia Remote Observatory. Observers L. Buzzi, L. Demetz.
Measurer L. Buzzi. 0.51-m f/6.7 astrograph + CCD.
Q62 iTelescope Observatory, Siding Spring. Observer H. Sato. 0.51-m f/6.8
astrograph + CCD + f/4.5 focal reducer.
W84 Cerro Tololo-DECam. Observers L. Allen, D. Trilling, D. James, D.
Herrera, C. Fuentes, J. Rajagopal, T. Axelrod. Measurer F. Valdes. 4.0-m
CTIO reflector + DECam.
Orbital elements:
P/2005 XR132 (Spacewatch)
Epoch 2024 Mar. 31.0 TT = JDT 2460400.5
T 2020 Nov. 26.77217 TT Rudenko
q 2.1335893 (2000.0) P Q
n 0.13525855 Peri. 240.76832 -0.80304692 -0.54132595
a 3.7586011 Node 265.39835 +0.59556465 -0.71470083
e 0.4323448 Incl. 14.47562 +0.02045469 -0.44290963
P 7.29
>From 111 observations 2005 Dec. 5-2021 May 14, mean residual 0".4.
Ephemeris:
Date TT R. A. (2000) Decl. Delta r Elong. Phase m1 m2
2024 01 30 20 55 13.1 -07 35 58 6.2838 5.3185 10.5 1.9 27.2
...
2024 02 14 21 07 11.6 -06 34 27 6.2916 5.3294 11.9 2.2 27.3
...
2024 02 22 21 13 25.9 -05 59 09 6.2751 5.3348 16.6 3.0 27.3
...
2024 02 28 21 18 00.5 -05 31 45 6.2535 5.3387 20.7 3.8 27.3
2024 02 29 21 18 45.6 -05 27 07 6.2492 5.3393 21.4 3.9 27.3
2024 03 01 21 19 30.6 -05 22 27 6.2446 5.3399 22.1 4.0 27.3
...
2024 03 07 21 23 56.3 -04 54 09 6.2128 5.3436 26.6 4.8 27.2
...
2024 03 15 21 29 37.9 -04 15 37 6.1589 5.3482 32.6 5.8 27.2
...
2024 03 30 21 39 30.3 -03 01 53 6.0253 5.3561 44.3 7.5 27.2
M. P. C. Staff (C) Copyright 2024 MPC M.P.E.C. 2024-D135
More information about the Iaude
mailing list